TimeMDT,TemperatureF,Dew PointF,Humidity,Sea Level PressureIn,VisibilityMPH,Wind Direction,Wind SpeedMPH,Gust SpeedMPH,PrecipitationIn,Events,Conditions,WindDirDegrees,DateUTC
12:55 AM,25.7,20.3,80,30.07,10.0,North,6.9,-,N/A,,Clear,360,2012-10-08 06:55:00
1:55 AM,25.5,20.1,80,30.06,10.0,North,10.4,-,N/A,,Clear,10,2012-10-08 07:55:00
2:55 AM,25.2,19.8,80,30.05,10.0,North,9.2,-,N/A,,Clear,360,2012-10-08 08:55:00
3:55 AM,25.7,19.6,78,30.01,10.0,North,11.5,-,N/A,,Clear,10,2012-10-08 09:55:00
4:55 AM,26.4,18.9,73,30.01,10.0,NNE,6.9,-,N/A,,Clear,20,2012-10-08 10:55:00
5:55 AM,24.6,17.6,75,30.03,10.0,North,8.1,-,N/A,,Clear,10,2012-10-08 11:55:00
6:55 AM,25.7,16.7,69,30.09,10.0,Calm,Calm,-,N/A,,Clear,0,2012-10-08 12:55:00
7:55 AM,31.8,18.9,59,30.06,10.0,Calm,Calm,-,N/A,,Clear,0,2012-10-08 13:55:00
8:55 AM,44.2,15.3,31,29.98,10.0,Calm,Calm,-,N/A,,Clear,0,2012-10-08 14:55:00
9:55 AM,51.3,16.2,25,29.94,10.0,SSE,8.1,-,N/A,,Clear,160,2012-10-08 15:55:00
10:55 AM,55.9,10.2,16,29.92,10.0,South,12.7,-,N/A,,Clear,190,2012-10-08 16:55:00
11:55 AM,59.7,10.0,14,29.90,10.0,South,8.1,-,N/A,,Clear,190,2012-10-08 17:55:00
12:55 PM,61.7,6.4,11,29.84,10.0,South,12.7,-,N/A,,Clear,170,2012-10-08 18:55:00
1:55 PM,64.9,6.8,10,29.81,10.0,SSE,5.8,-,N/A,,Clear,150,2012-10-08 19:55:00
2:55 PM,66.6,10.8,11,29.75,10.0,SSE,9.2,-,N/A,,Clear,150,2012-10-08 20:55:00
3:55 PM,66.4,12.6,12,29.74,10.0,SSE,8.1,-,N/A,,Clear,160,2012-10-08 21:55:00
4:55 PM,64.9,11.5,12,29.74,10.0,South,8.1,-,N/A,,Clear,170,2012-10-08 22:55:00
5:55 PM,62.1,13.3,15,29.82,10.0,South,4.6,-,N/A,,Clear,170,2012-10-08 23:55:00
6:55 PM,52.3,18.5,26,29.89,10.0,West,5.8,-,N/A,,Clear,260,2012-10-09 00:55:00
7:55 PM,46.8,18.7,33,29.90,10.0,Calm,Calm,-,N/A,,Clear,0,2012-10-09 01:55:00
8:55 PM,41.5,17.6,38,29.86,10.0,Variable,3.5,-,N/A,,Clear,0,2012-10-09 02:55:00
9:47 PM,41.0,17.6,39,29.81,10.0,North,5.8,-,N/A,,Clear,10,2012-10-09 03:47:00
9:55 PM,40.5,18.0,40,29.81,10.0,North,9.2,-,0.00,,Clear,360,2012-10-09 03:55:00
9:57 PM,39.2,17.6,42,29.81,10.0,NNE,6.9,-,N/A,,Clear,20,2012-10-09 03:57:00
10:55 PM,48.2,3.6,16,29.74,10.0,ENE,10.4,-,0.00,,Clear,60,2012-10-09 04:55:00
11:55 PM,56.1,-0.2,10,29.72,10.0,WNW,12.7,26.5,N/A,,Clear,290,2012-10-09 05:55:00
11:57 PM,55.4,-0.4,10,29.72,10.0,West,12.7,-,N/A,,Clear,280,2012-10-09 05:57:00